Theta_e
287 287 287 287 286 286 286 286 286 286 286 286 286 286 286 286 286 286 286 285 285 285 285 285 285 285 285 285 285 285 285 285 285 285 286 286 286 286 286 286 286 286 286 286 287 287 287 287 287 287 287 287 288 288 288 288 288 288 288 288 288 288 288 288 289 289 289 289 289 290 290 290 290 290 290 290 290 290 290 290 290 290 290 290 290 291
286 286 286 286 286 286 286 286 286 286 286 286 286 286 286 286 286 285 285 285 285 285 285 285 285 285 285 285 285 285 285 285 285 285 286 286 286 286 286 286 286 286 286 286 286 286 287 287 287 287 287 287 287 288 288 288 288 288 288 288 288 288 288 288 288 288 288 288 289 289 289 289 289 289 289 289 290 289 290 290 290 290 290 290 290 290
286 286 286 286 286 286 286 286 286 285 285 285 285 285 285 285 285 285 285 285 285 285 285 285 284 284 285 285 285 285 285 285 285 286 286 286 286 286 286 286 286 286 286 286 286 286 286 286 287 287 287 287 287 287 288 287 287 287 287 287 287 287 287 287 287 288 288 288 288 288 288 288 288 289 289 289 289 289 289 289 289 289 289 290 290 290
286 286 286 286 285 285 285 285 285 285 285 285 285 285 285 285 284 284 285 285 285 285 284 284 284 284 284 285 285 285 285 285 285 285 286 286 286 286 286 286 286 286 286 286 286 286 286 286 286 287 287 287 287 287 287 287 287 287 287 287 287 287 287 287 287 287 287 287 288 288 288 288 288 288 288 288 288 288 288 288 289 289 289 289 290 290
286 286 285 285 285 285 285 285 285 285 285 285 285 284 284 284 284 284 284 284 284 284 284 284 284 284 284 284 285 285 285 285 285 285 285 285 286 286 286 286 286 286 286 286 286 286 286 286 286 286 286 287 287 286 286 286 286 286 286 286 286 286 286 286 286 287 287 287 287 287 287 287 287 288 288 288 288 288 288 288 288 288 289 289 289 289
286 285 285 285 285 285 285 284 284 284 284 284 284 284 284 284 284 284 284 284 284 284 284 284 284 284 284 284 285 285 285 285 285 285 285 285 286 286 286 286 286 285 286 286 286 286 286 286 286 286 286 286 286 286 286 286 286 286 286 286 286 286 286 286 286 286 286 286 286 287 287 287 287 287 287 287 287 288 288 288 288 288 288 289 289 289
285 285 285 285 285 284 284 284 284 284 284 284 284 284 284 284 284 284 284 283 283 283 283 284 284 284 284 284 284 285 285 285 285 285 285 285 286 286 286 285 285 285 285 285 285 286 286 286 286 286 286 286 286 285 285 285 285 285 285 285 285 286 286 286 286 286 286 286 286 286 286 286 286 287 287 287 287 287 288 288 288 288 288 289 289 289
285 285 285 284 284 284 284 284 284 284 284 284 284 284 284 283 284 283 283 283 283 283 283 283 284 284 284 284 285 285 285 285 285 285 285 285 285 285 285 285 285 285 285 285 285 285 285 285 285 285 285 285 285 285 285 285 285 285 285 285 285 285 285 285 285 285 285 286 286 286 286 286 286 286 287 287 287 287 288 288 288 288 289 289 289 290
285 284 284 284 284 284 284 284 284 284 284 284 283 283 283 283 283 283 283 283 283 283 283 283 283 284 284 285 285 285 285 285 285 285 285 285 285 285 285 285 285 285 285 285 285 285 285 285 285 285 285 285 285 285 285 285 285 285 285 285 285 285 285 285 285 285 285 285 285 285 286 286 286 286 287 287 287 287 287 288 288 288 289 289 289 290
284 284 284 284 284 284 284 284 284 284 283 283 283 283 283 283 283 283 283 283 283 283 283 283 283 284 284 284 285 285 285 285 284 284 284 284 284 284 284 284 284 285 284 284 284 285 285 285 285 285 285 285 285 285 285 285 285 285 285 285 285 285 284 285 285 285 285 285 285 285 286 286 286 286 287 287 287 287 287 288 288 288 288 288 289 289
284 284 284 284 284 283 283 283 283 283 283 283 283 283 283 283 283 283 282 282 282 283 283 283 283 283 284 284 284 284 284 284 284 284 284 284 284 284 284 284 284 284 284 284 284 285 285 285 285 285 285 285 285 285 285 285 285 285 285 285 285 285 284 285 285 285 285 285 285 285 286 286 286 286 287 287 287 287 287 288 288 288 288 288 289 289
284 284 284 284 284 283 283 283 283 283 283 283 283 283 283 283 282 282 282 282 282 283 283 283 283 283 283 283 284 284 284 284 284 284 284 284 284 284 284 284 284 284 284 284 284 285 285 285 285 285 285 285 285 285 285 285 285 285 285 285 285 285 285 285 285 285 285 285 285 285 286 286 286 286 286 287 287 287 287 287 287 288 288 288 288 288
284 284 284 284 284 284 283 283 283 283 283 283 283 283 283 282 282 282 282 282 282 283 283 283 282 283 283 283 283 283 283 283 283 284 284 284 284 284 284 284 284 284 284 284 285 285 285 285 285 285 285 285 285 285 285 285 285 285 285 285 285 285 285 285 285 285 285 285 285 285 286 286 286 286 286 286 287 287 287 287 287 287 287 287 288 288
284 284 284 284 284 284 284 284 284 283 283 283 283 282 282 282 282 282 282 282 282 282 282 282 282 282 283 283 283 283 283 283 284 284 284 284 284 284 284 283 284 284 284 284 284 285 285 285 285 285 285 285 285 285 285 285 285 285 285 285 285 285 285 285 285 285 285 285 285 285 285 286 286 286 286 286 287 287 287 287 287 287 287 287 287 288
284 284 284 284 284 284 284 284 283 283 283 283 282 282 282 282 282 282 282 282 282 282 282 282 282 282 283 283 283 283 284 284 284 284 284 283 283 283 283 283 283 284 284 284 285 285 285 285 285 285 285 285 285 285 285 285 285 285 285 285 285 284 285 285 285 285 285 285 285 285 285 285 286 286 286 286 287 287 287 287 287 287 287 287 287 287
284 284 284 284 284 284 284 283 283 283 282 282 282 282 281 281 282 282 282 282 282 282 282 282 283 283 283 283 283 284 284 284 284 283 283 283 283 283 283 283 283 284 284 284 285 285 285 285 285 285 285 285 285 285 285 285 285 285 285 285 284 284 284 284 285 285 285 285 285 285 285 286 286 286 286 286 286 286 287 287 287 287 287 287 287 287
284 285 285 284 284 284 283 283 282 282 282 281 281 281 281 282 282 282 282 282 282 282 283 283 283 283 283 283 283 284 284 283 283 283 283 282 283 283 283 283 283 283 284 284 285 285 284 284 284 285 285 285 285 285 285 285 285 285 285 285 284 284 284 285 285 285 285 285 285 285 285 286 286 286 286 286 286 286 286 286 286 287 287 287 287 287
285 285 284 284 283 283 283 282 282 282 281 281 281 281 282 282 282 282 282 283 283 283 283 283 283 283 283 283 283 283 283 283 283 282 282 282 282 283 283 283 283 283 284 284 284 284 284 284 284 284 285 285 285 285 285 285 285 285 285 285 285 285 285 285 285 285 285 285 285 285 285 285 286 286 286 286 286 286 286 287 287 287 287 287 287 287
284 284 283 283 282 282 282 282 282 281 281 281 281 282 282 282 282 283 283 283 283 283 283 283 283 283 283 283 283 283 283 283 282 282 282 282 282 282 283 283 283 283 283 284 284 284 284 284 284 284 284 285 285 285 285 285 285 285 285 285 285 285 285 285 285 285 285 285 285 285 285 285 286 286 286 286 286 286 286 286 286 287 287 287 287 287
283 283 283 282 282 282 282 282 282 281 281 281 282 282 282 283 283 283 284 284 284 283 283 283 283 283 283 283 282 283 283 283 282 282 281 281 281 282 283 283 283 283 283 284 284 284 284 284 284 284 284 284 285 285 285 285 285 285 285 285 285 285 285 285 285 285 285 285 285 285 285 285 285 286 286 286 286 286 286 286 286 286 287 287 287 287
283 283 282 282 282 282 282 282 281 281 281 282 282 283 283 283 284 284 284 284 283 283 283 283 283 282 282 282 282 283 283 283 282 281 281 281 281 282 283 283 282 282 283 283 284 284 283 283 283 284 284 284 284 284 284 284 285 285 285 285 285 285 285 285 285 285 285 285 285 285 285 285 285 285 285 285 286 286 286 286 286 286 287 287 287 287
283 283 282 282 282 282 282 282 281 281 282 282 283 284 284 285 285 284 284 283 283 283 282 282 282 282 282 282 282 283 283 283 282 281 281 281 281 282 282 282 282 282 282 283 283 283 283 283 283 283 283 284 284 284 284 284 284 284 284 285 285 285 285 285 285 285 285 285 285 285 285 285 285 285 285 285 285 286 286 286 286 286 286 286 286 286
283 283 282 282 282 282 282 281 281 282 282 283 284 284 285 285 284 284 283 283 282 282 282 282 281 282 282 282 282 283 283 283 282 281 280 280 281 281 282 282 282 282 282 283 283 283 282 282 282 283 283 283 284 284 284 284 284 284 284 284 284 284 285 285 285 284 284 284 285 285 285 285 285 285 285 285 285 285 286 286 286 286 286 286 286 286
283 283 282 282 282 281 281 281 282 282 283 284 284 284 284 284 283 283 283 282 282 282 282 281 281 281 281 282 282 283 284 283 283 281 281 280 281 281 282 282 282 282 282 282 282 282 282 282 282 282 283 283 284 284 284 284 284 284 284 284 284 284 284 284 284 284 284 284 284 285 285 285 285 285 285 285 285 285 285 285 285 286 286 286 286 286
283 283 282 282 282 282 282 282 283 283 284 284 284 283 283 283 283 283 283 283 282 282 281 281 280 281 281 281 282 283 284 284 283 282 281 280 280 281 282 282 281 281 282 282 282 282 282 282 282 282 282 283 283 284 284 284 284 284 284 284 284 284 284 284 284 284 284 284 284 284 284 284 285 284 284 284 285 285 285 285 285 285 285 286 286 286
283 282 282 282 282 282 282 283 283 283 283 283 282 283 283 282 282 282 282 282 282 281 280 280 280 280 281 281 281 282 283 284 283 282 281 281 281 281 282 282 282 281 281 282 282 282 282 282 282 282 282 283 283 283 284 284 284 284 284 284 284 284 284 284 284 284 284 284 284 284 284 284 284 284 284 284 284 284 285 285 285 285 285 286 286 286
282 282 282 282 282 282 282 282 282 282 282 282 282 282 281 281 281 281 281 281 281 280 280 280 280 280 280 280 280 281 282 283 283 283 282 281 280 281 281 282 282 281 281 281 282 282 282 282 282 282 282 282 283 283 283 283 283 283 283 283 283 284 284 284 284 284 284 284 284 284 284 284 284 284 284 284 284 284 284 285 285 285 285 285 285 286
282 282 282 282 282 282 282 282 282 282 282 282 282 282 281 281 281 280 280 281 281 280 280 279 279 279 280 280 280 281 282 283 283 283 282 281 280 281 281 281 281 281 281 281 281 282 282 282 282 282 282 282 282 282 283 283 283 283 283 283 283 284 284 284 284 284 284 284 284 284 284 284 284 284 284 284 284 284 284 284 285 285 285 285 285 285
282 282 282 282 282 282 282 282 282 282 282 282 282 282 282 281 281 280 281 281 280 280 280 280 279 279 279 279 279 280 281 282 283 282 281 281 280 281 281 281 281 281 281 281 281 281 282 282 282 282 282 282 282 282 282 282 283 283 283 283 284 284 284 284 284 284 284 284 284 284 284 284 284 284 284 284 284 284 284 284 284 285 285 285 285 285
282 282 282 282 282 282 282 282 282 282 282 282 282 282 282 282 282 281 281 281 280 280 279 279 279 279 279 279 279 280 281 282 283 282 281 281 281 281 281 281 281 281 281 281 281 281 281 282 282 282 282 282 281 281 282 282 282 282 283 283 283 284 284 284 284 284 284 284 284 284 284 284 284 284 284 284 284 284 284 284 284 284 284 284 284 284
282 282 282 282 282 282 282 282 282 283 283 283 283 283 282 282 282 282 282 281 280 279 279 279 279 279 279 279 279 279 280 282 283 282 281 280 280 281 281 281 281 281 280 280 280 280 281 281 282 282 282 281 281 281 281 281 282 282 282 283 283 283 284 284 283 283 283 284 284 284 284 284 284 284 284 284 284 284 284 284 284 284 284 284 284 284
282 282 282 282 282 283 283 283 283 283 283 283 283 283 283 283 283 282 282 281 280 279 279 279 279 279 279 279 279 279 280 282 283 282 281 280 280 280 281 280 280 280 280 280 280 280 280 281 281 281 281 281 281 281 281 281 281 281 282 282 282 283 283 283 283 283 283 283 284 284 284 284 284 284 284 284 284 284 284 284 284 284 284 284 284 284
282 282 282 283 283 283 283 283 283 283 284 284 284 284 283 283 283 282 281 281 280 279 279 279 279 279 279 279 279 279 281 282 283 282 281 280 280 280 280 280 280 280 280 280 280 280 280 280 280 280 281 281 281 281 281 281 281 281 281 282 282 283 283 283 283 283 283 283 283 284 284 284 284 284 284 284 284 284 284 284 284 284 284 284 284 284
282 282 283 283 283 283 283 283 284 284 284 284 284 284 284 283 283 283 282 281 281 280 280 279 279 279 279 279 279 280 282 283 283 282 281 280 280 280 280 280 280 280 280 280 280 280 280 280 280 280 280 281 281 281 281 281 281 281 281 282 282 282 283 283 283 283 283 283 283 284 284 284 284 284 285 285 285 285 285 284 284 284 284 284 284 284
283 283 283 283 283 284 284 284 284 284 284 284 284 284 284 284 284 283 283 282 282 281 280 280 280 279 279 279 280 281 282 284 284 283 282 281 280 280 280 280 280 280 280 280 280 280 280 280 280 280 280 280 281 281 281 281 281 281 281 281 282 282 282 282 282 282 283 283 283 283 284 284 284 284 285 285 285 285 285 284 284 284 284 284 284 284
283 283 283 283 284 284 284 284 284 284 284 284 284 284 284 284 284 284 283 283 283 282 282 281 281 281 280 280 280 281 283 284 284 284 282 282 281 280 280 280 280 280 280 280 280 280 280 280 280 280 280 280 280 281 281 281 281 281 281 282 282 282 282 282 282 282 282 283 283 283 284 284 284 284 284 285 285 284 284 284 284 284 284 284 284 285
283 283 283 283 284 284 284 285 285 284 284 284 284 284 285 284 284 284 284 283 283 283 283 283 283 282 282 282 282 282 283 284 284 284 283 282 281 280 280 280 280 280 280 280 280 280 280 280 280 280 280 280 280 280 281 281 281 281 282 282 282 282 282 283 283 282 282 282 283 283 283 283 283 284 284 284 284 284 284 284 284 284 284 284 285 284
283 283 283 283 284 284 284 284 284 284 284 284 284 285 285 285 285 284 284 284 284 284 284 284 284 284 284 283 283 284 284 284 285 284 284 283 282 281 280 280 280 280 280 280 280 280 280 280 280 280 280 280 280 281 281 281 281 281 282 282 282 282 282 283 283 282 282 282 282 283 283 283 283 283 284 284 284 284 284 284 285 285 285 285 285 285
283 283 283 283 283 283 284 284 284 284 284 284 285 285 285 285 285 284 284 284 284 284 284 284 284 284 284 285 285 285 285 285 284 284 284 283 282 281 281 280 280 281 281 281 280 280 280 280 280 280 280 280 280 281 281 281 281 281 281 282 282 282 282 283 283 282 282 282 282 283 283 283 283 283 283 284 284 284 284 284 284 284 284 284 284 284
283 283 283 283 283 283 283 284 284 284 284 285 285 285 284 284 285 285 284 284 284 284 284 284 284 284 285 285 285 285 285 284 284 284 283 283 282 282 281 281 281 281 281 281 280 280 280 280 280 280 280 280 280 280 281 281 281 281 281 281 281 282 283 283 283 283 283 283 283 283 283 283 283 283 283 283 283 283 284 284 284 284 284 284 284 284
283 283 283 283 283 283 284 284 284 284 284 285 285 285 285 284 284 285 285 285 285 285 285 284 284 285 285 285 285 284 284 284 284 284 284 284 283 283 282 282 281 281 281 281 281 281 280 280 280 280 280 280 280 280 281 281 281 281 281 281 281 282 282 283 283 283 283 283 283 283 283 283 283 283 283 283 284 284 284 284 284 284 284 284 284 284
283 283 283 284 284 284 284 284 284 284 284 284 284 284 284 284 284 284 284 284 285 285 284 284 283 283 284 285 285 285 285 285 285 284 284 284 284 283 283 282 282 282 281 281 281 281 281 281 281 280 280 281 281 281 281 281 281 282 281 281 281 282 282 283 283 283 283 283 283 283 283 283 283 283 284 284 284 284 284 284 284 284 284 284 284 284
283 283 283 283 284 284 284 284 284 284 284 284 284 284 284 284 283 283 283 283 284 284 283 283 282 282 283 284 285 286 286 286 285 285 285 284 284 284 283 283 283 282 281 281 281 281 281 281 281 281 281 281 281 281 281 281 281 282 282 282 282 282 282 283 283 284 283 283 283 283 283 283 283 284 284 284 284 284 284 284 284 284 284 284 284 284
283 283 283 283 284 284 284 284 284 284 284 285 285 285 284 284 283 283 282 282 283 283 282 282 282 282 282 283 284 285 286 286 286 286 285 285 284 284 284 283 283 282 282 281 281 281 281 281 281 281 281 281 281 281 281 281 281 282 282 282 282 282 282 283 283 283 283 283 283 284 284 284 284 284 284 284 284 284 284 284 284 284 284 284 284 284
283 283 283 283 283 283 284 284 284 284 284 285 284 284 284 283 283 282 282 282 282 282 282 281 281 281 281 282 283 284 285 286 287 287 286 286 285 284 284 283 283 282 282 282 282 281 281 281 282 282 282 282 281 281 281 281 282 282 282 282 283 282 283 283 283 283 283 283 283 284 284 284 284 284 284 284 284 284 284 284 284 284 284 284 284 284
283 283 283 284 284 285 285 285 285 285 285 285 284 284 283 283 283 283 282 282 282 282 282 281 281 281 281 281 282 283 284 285 287 287 287 286 286 285 284 283 283 282 282 282 282 282 282 282 282 282 282 281 281 281 282 282 282 282 282 283 283 283 283 283 283 283 283 283 283 284 284 284 284 284 284 284 284 284 284 284 285 285 285 285 284 284
282 283 284 284 285 285 285 285 285 285 284 284 284 284 283 283 283 283 283 282 282 282 282 282 281 281 281 281 282 282 283 284 285 286 286 286 286 285 284 283 283 282 282 282 282 282 282 282 282 282 282 281 282 282 282 282 282 282 283 283 283 283 283 283 283 283 283 283 283 284 284 284 284 284 284 284 285 285 285 285 285 285 285 285 284 284
282 283 284 284 285 285 285 285 285 284 284 284 284 284 284 283 283 283 283 283 282 282 282 282 281 281 281 281 282 282 282 283 283 284 285 285 285 285 284 283 283 282 282 282 282 282 282 282 282 282 282 282 282 282 282 283 283 283 283 283 283 283 283 283 283 283 283 283 284 284 284 284 284 285 285 285 285 285 285 285 285 285 284 284 284 284
283 284 284 285 284 284 284 285 284 284 284 284 284 284 284 284 284 283 283 283 282 282 282 281 281 281 282 282 283 283 283 283 283 284 284 284 284 283 283 283 283 282 282 282 282 282 282 282 282 282 282 282 282 282 283 283 283 283 283 283 283 283 283 283 283 284 284 284 284 284 284 285 285 285 285 285 285 285 285 285 284 284 284 284 284 285
284 285 285 285 284 284 284 284 284 284 284 284 284 284 284 285 285 284 283 283 282 282 282 281 281 281 281 282 283 283 283 283 283 283 284 284 283 283 283 283 282 282 282 282 282 282 282 282 282 282 282 283 283 283 283 283 283 283 283 283 283 283 283 284 284 284 284 284 284 285 285 285 285 285 285 285 285 285 285 284 284 284 284 284 284 284
285 285 285 285 284 284 284 284 284 284 284 284 284 284 284 285 285 284 284 283 283 282 282 282 281 281 281 282 282 283 283 283 282 283 283 283 283 283 282 283 282 282 282 282 282 282 282 282 282 282 283 283 283 283 283 283 283 283 283 284 284 284 284 284 284 284 284 285 285 285 285 285 285 285 285 285 285 285 285 284 284 284 284 284 284 284
Wind_Speed
30 31 31 30 30 31 31 30 29 28 28 27 26 25 25 25 25 25 25 24 24 24 24 24 23 23 23 23 23 22 22 21 20 19 18 17 17 17 18 18 19 20 21 22 22 22 23 22 22 22 22 22 22 22 22 22 23 23 24 25 25 26 26 27 27 27 27 27 27 28 28 28 28 29 29 29 30 30 30 31 32 32 32 32 32 32
31 31 30 30 30 31 31 30 28 28 27 27 27 26 26 26 27 26 26 25 25 24 24 24 24 24 24 24 23 22 21 20 19 18 18 18 18 18 18 19 19 20 20 20 21 21 22 22 22 21 21 21 21 21 22 22 23 24 25 26 26 27 27 27 27 27 28 28 28 28 28 28 28 29 29 29 30 30 30 31 31 31 31 31 31 31
31 31 31 31 30 30 30 30 29 28 27 27 27 27 27 28 28 28 27 27 26 25 25 25 25 25 25 24 23 22 21 20 19 19 19 19 19 19 19 19 19 19 18 19 19 20 21 21 21 21 21 21 22 22 23 23 24 25 26 26 27 27 27 27 27 27 27 28 28 28 29 29 29 29 29 29 30 30 30 30 30 30 30 30 30 30
30 30 31 30 30 30 30 30 29 28 28 27 28 28 28 29 29 28 28 27 27 26 26 26 26 26 26 25 23 22 21 20 20 20 20 20 20 20 19 18 18 17 17 18 18 19 20 20 21 22 22 22 23 24 24 25 26 26 27 27 27 27 27 27 27 27 27 27 28 28 29 29 29 29 29 29 29 29 29 29 29 29 29 29 29 29
30 29 29 29 29 30 30 30 29 29 28 28 28 29 29 29 29 28 28 27 27 27 27 27 27 26 26 25 24 23 22 21 21 21 21 21 20 19 19 18 17 17 18 18 19 20 20 21 22 23 24 24 25 26 27 27 27 27 27 27 27 27 27 27 26 27 27 27 28 28 28 28 28 28 28 28 28 28 28 28 28 28 28 28 29 29
29 28 28 27 28 29 30 29 28 28 28 28 29 29 29 28 28 27 27 27 27 28 28 28 28 27 26 25 24 23 23 23 23 23 22 21 20 19 18 18 18 18 19 20 20 21 22 23 24 25 26 27 27 28 28 28 28 27 27 27 26 26 26 26 26 26 26 26 27 27 27 27 28 28 28 28 28 28 27 27 27 27 27 27 27 27
28 27 26 26 27 28 28 28 27 27 27 28 29 29 28 27 27 26 26 27 28 29 29 29 28 27 26 25 24 24 24 24 24 23 23 21 20 19 19 19 20 20 21 22 23 23 24 25 26 27 28 28 28 28 27 27 27 26 26 26 26 26 26 25 25 25 25 25 26 26 26 27 27 27 27 27 27 27 26 26 26 26 26 26 27 27
28 27 26 27 27 28 27 26 26 25 26 27 28 29 29 28 27 27 27 28 28 29 30 29 29 27 26 25 24 24 25 25 25 24 23 22 21 21 21 21 22 22 23 24 25 26 27 27 28 29 29 28 28 27 26 25 25 25 25 25 25 25 25 25 25 25 25 25 25 25 25 25 25 26 26 26 26 26 26 26 26 27 27 27 27 28
26 27 27 27 27 27 28 27 26 25 25 25 26 26 27 28 28 28 28 29 29 29 29 29 29 27 26 25 25 26 26 25 25 24 23 22 22 22 23 23 23 24 25 26 27 28 29 30 30 29 28 26 25 24 24 24 24 24 24 24 24 24 24 24 24 25 25 24 24 24 24 24 24 25 25 25 25 26 26 27 27 27 27 28 28 29
25 26 27 26 26 26 27 28 27 26 25 24 23 23 24 26 28 29 30 30 30 29 28 28 28 28 28 27 27 27 27 26 25 23 23 22 23 23 24 24 25 26 28 29 30 31 31 30 29 27 25 24 23 23 23 23 23 23 23 23 23 23 23 24 24 24 24 23 23 23 23 24 25 25 25 26 26 27 27 28 28 28 28 28 29 30
25 25 25 26 26 26 25 26 26 25 24 23 23 23 22 24 26 29 31 33 32 30 28 27 27 28 29 30 29 28 27 27 25 24 23 23 23 24 25 26 27 29 31 32 33 32 31 29 27 25 23 23 23 23 23 23 23 23 23 23 23 23 23 23 22 22 22 22 23 23 24 25 25 26 26 26 27 27 28 28 28 29 29 29 29 30
25 25 24 25 25 25 24 24 24 23 22 22 23 24 24 25 26 28 31 32 32 30 29 28 28 28 29 30 30 29 27 26 26 25 24 24 24 26 27 29 31 33 34 35 34 32 29 27 25 24 23 23 23 23 23 23 23 23 23 23 22 22 22 21 22 22 22 23 24 25 26 26 26 27 27 27 27 28 28 28 29 29 29 29 30 30
25 25 26 25 25 24 23 23 23 22 22 22 23 25 27 28 29 29 30 30 29 29 29 29 30 29 29 29 28 27 26 25 25 25 24 24 26 28 30 33 34 36 36 36 34 31 28 27 26 25 24 24 24 24 23 23 23 23 23 22 22 22 22 22 23 23 24 25 26 26 27 27 27 27 27 27 27 28 28 29 29 29 30 30 30 31
25 26 25 25 24 23 22 22 23 23 23 23 25 27 29 30 30 29 28 28 28 28 29 30 30 30 29 27 26 25 24 24 24 25 25 26 28 30 33 34 36 36 36 35 33 31 28 27 27 26 25 25 24 24 24 24 23 23 22 22 22 22 23 24 24 25 25 26 27 27 27 27 27 27 27 27 28 28 29 29 30 30 30 31 31 31
25 25 24 24 24 23 23 23 24 24 25 26 27 29 30 29 28 27 27 27 28 28 29 30 30 29 27 25 24 22 22 22 23 26 28 30 31 33 34 35 36 36 35 34 32 30 29 28 28 28 27 26 25 25 25 24 24 23 22 22 23 23 24 25 25 25 26 26 26 26 26 27 27 27 27 28 28 29 29 30 30 30 31 31 31 32
25 25 24 25 25 24 24 23 24 26 27 28 28 28 28 27 26 26 26 28 29 29 29 29 29 29 27 24 22 21 21 23 25 28 31 33 34 35 35 35 36 35 34 32 31 31 30 29 29 28 28 27 26 25 25 25 24 23 23 23 23 23 24 24 25 25 26 26 26 26 27 27 27 28 28 28 29 29 29 30 30 31 31 31 32 32
25 25 24 25 26 26 25 24 25 26 27 28 27 27 26 26 26 27 28 29 30 30 29 28 28 28 28 26 24 22 23 26 29 31 33 34 36 36 36 35 34 34 33 32 31 31 31 30 30 29 29 28 27 26 26 25 24 24 23 23 23 23 23 24 24 25 25 26 26 26 27 27 27 28 28 28 29 29 29 30 30 31 31 31 31 32
25 25 26 26 26 26 25 25 25 26 27 27 27 27 26 26 27 28 29 30 30 30 30 30 28 27 27 27 27 27 28 30 33 35 36 37 38 37 35 34 33 33 33 32 32 31 31 31 31 30 30 29 28 27 27 26 25 24 23 23 23 23 23 24 24 25 25 26 26 27 27 28 28 28 28 28 29 29 29 30 30 31 31 31 31 32
25 25 26 26 27 27 26 26 26 26 27 27 28 28 28 28 28 29 30 30 30 29 28 28 28 28 28 29 31 32 33 34 35 36 37 38 37 36 34 32 32 32 33 33 32 32 31 32 32 32 32 31 30 29 28 27 26 25 24 24 23 23 23 23 24 24 25 25 26 27 27 28 28 28 28 28 29 29 29 30 30 31 31 31 32 32
28 27 26 26 27 27 27 26 26 27 28 27 27 27 29 30 30 30 30 30 29 28 27 27 27 28 29 31 34 37 38 38 37 36 36 35 35 34 33 31 31 32 33 33 33 32 32 32 33 33 33 33 32 31 30 29 28 27 26 25 24 24 24 24 24 25 26 26 27 27 27 28 28 28 29 29 29 29 29 30 30 31 31 32 32 32
28 28 27 26 26 28 28 28 28 29 27 26 26 27 29 30 30 30 30 28 27 26 26 27 29 30 32 35 38 40 40 38 36 35 35 34 33 33 32 31 31 32 33 34 33 33 32 33 34 34 34 34 33 32 31 30 29 28 27 26 25 25 25 25 25 26 26 26 27 27 28 28 29 29 29 29 29 29 30 30 30 31 32 32 32 33
27 28 27 27 27 28 29 29 29 28 25 25 26 28 29 29 29 28 27 25 26 27 28 30 33 35 36 38 40 40 37 35 33 33 33 34 34 33 32 30 30 32 33 34 34 33 33 33 34 34 35 35 34 33 32 31 30 28 27 27 27 27 26 26 27 27 27 27 28 28 29 29 29 30 31 31 31 31 31 31 31 32 32 32 33 33
26 27 28 28 29 30 30 30 28 26 25 25 26 27 27 26 25 25 25 26 29 33 35 37 38 38 38 37 37 36 34 31 30 30 30 31 32 32 31 30 30 31 32 33 33 33 33 33 33 34 35 35 35 34 33 32 30 29 28 28 28 28 28 28 29 29 29 29 29 30 30 30 31 31 32 32 32 31 31 31 32 32 32 32 32 32
26 28 30 30 30 29 28 27 26 25 25 25 26 25 25 24 25 27 30 33 36 38 40 39 38 37 35 34 34 33 32 30 28 28 28 29 30 31 31 30 30 31 32 33 33 33 33 33 33 34 35 36 35 34 33 32 31 30 29 30 30 30 30 30 30 30 30 31 31 31 31 31 31 32 32 32 32 31 31 31 31 31 31 31 31 31
28 30 30 29 28 26 24 24 23 23 24 24 24 25 27 29 31 33 35 36 37 37 36 35 34 34 33 32 32 32 31 28 27 27 27 28 30 31 31 30 30 31 33 34 33 32 32 33 34 35 36 36 36 34 33 32 31 31 31 31 31 31 32 32 32 32 32 32 32 31 31 31 31 31 31 31 31 31 31 31 30 30 30 30 31 31
29 29 28 26 24 23 23 23 23 24 25 26 27 29 31 33 34 35 35 35 34 33 32 32 32 32 32 31 31 31 30 28 27 27 26 27 29 31 32 31 30 31 33 34 33 33 32 34 35 35 36 36 35 34 33 33 33 33 33 33 33 33 33 33 33 33 32 32 31 31 31 30 30 30 29 29 29 30 30 30 30 30 30 30 30 31
27 26 25 24 24 24 24 25 25 26 27 28 30 31 33 34 34 34 33 32 30 29 29 30 31 32 31 30 30 30 30 29 28 27 26 27 29 31 32 31 31 31 33 34 34 34 34 34 35 35 35 35 35 34 33 34 34 34 34 34 34 34 34 34 34 33 32 31 31 30 30 29 29 29 29 29 29 29 29 29 29 29 29 29 30 31
25 24 24 24 24 25 26 27 28 29 30 31 32 33 32 31 30 29 29 29 28 27 27 27 28 29 29 28 29 30 31 30 29 27 25 26 28 30 32 31 31 31 32 35 37 37 35 34 33 33 33 33 33 33 33 34 35 35 36 36 36 36 35 35 34 33 32 32 31 30 30 29 29 29 28 28 28 28 28 28 28 28 28 29 29 31
23 23 23 24 25 26 28 29 30 31 32 32 32 31 30 28 26 26 26 25 24 24 25 25 26 27 27 28 29 30 31 30 28 26 25 25 27 30 31 31 31 31 32 35 37 37 36 34 31 29 30 31 32 32 33 35 36 37 38 38 38 37 37 36 35 34 33 32 31 31 30 29 29 28 27 27 26 26 26 26 26 26 27 28 29 30
25 25 25 25 26 27 29 30 31 31 31 30 29 28 27 25 23 23 22 21 21 21 23 24 26 27 28 29 29 30 30 30 28 25 25 25 28 31 33 33 33 33 32 33 34 35 36 35 33 30 28 29 31 33 34 36 37 38 39 39 39 38 38 36 35 34 33 33 32 31 30 30 29 28 27 26 25 25 24 24 24 25 26 27 28 29
27 27 27 27 26 27 28 29 29 29 29 27 26 24 22 21 20 20 19 19 19 21 23 25 26 27 28 28 27 28 30 31 29 27 27 28 30 33 33 34 34 33 32 30 30 30 32 35 36 34 31 30 31 33 35 36 36 37 38 38 39 39 38 37 36 35 34 33 33 32 31 30 29 28 27 26 25 24 23 23 23 24 25 26 28 29
28 28 27 27 26 26 27 27 27 27 25 23 21 20 19 18 18 19 19 19 20 21 23 24 26 27 28 28 28 29 32 33 32 29 29 29 31 33 33 33 34 34 32 30 29 29 29 32 36 38 37 34 33 33 34 34 34 35 36 37 38 39 38 37 36 35 35 34 33 33 31 30 29 28 27 26 25 24 23 22 21 22 23 25 26 27
27 26 26 25 25 26 26 26 25 23 21 20 18 18 18 18 19 20 20 21 21 22 23 24 26 27 28 29 31 32 34 34 33 31 29 30 32 33 34 34 34 34 33 32 31 30 30 33 36 38 38 36 34 33 33 33 34 34 36 37 38 38 38 37 37 36 36 35 35 33 32 31 29 28 27 26 25 24 23 22 21 21 22 23 24 25
24 24 24 25 25 25 25 24 22 20 19 18 18 18 19 20 21 21 22 22 22 22 23 24 25 27 28 30 32 34 35 34 32 30 29 30 31 33 34 35 35 35 35 33 32 32 32 33 35 36 36 36 35 34 33 34 34 35 36 36 37 38 38 38 37 37 37 36 36 35 33 32 30 29 28 27 26 25 24 23 22 21 20 21 23 24
23 24 24 25 25 24 23 21 20 18 18 18 19 20 20 21 22 22 22 23 23 23 23 23 24 25 27 29 31 34 35 34 32 30 30 30 31 33 34 35 35 35 34 35 35 34 33 33 33 34 35 36 37 37 36 34 34 34 35 36 36 37 38 38 37 37 37 37 37 36 34 33 32 31 29 28 27 27 26 25 23 22 22 22 23 25
24 24 24 24 24 23 21 20 19 19 19 20 20 21 21 22 22 22 22 22 22 22 22 23 23 24 25 26 29 32 33 33 32 31 30 30 31 32 34 35 35 35 35 35 36 35 34 34 35 35 35 35 36 36 36 35 34 35 36 37 37 37 38 37 37 37 37 37 37 37 35 34 33 32 31 30 29 29 27 26 25 24 24 23 23 24
24 24 24 23 22 21 20 19 19 20 20 20 21 21 21 22 22 22 22 22 22 22 23 23 24 24 25 26 28 30 32 33 33 32 31 30 30 31 33 35 34 34 34 35 36 37 37 37 36 35 34 33 33 33 35 36 37 38 38 39 38 38 38 37 37 37 37 37 37 37 36 35 35 34 33 32 32 31 29 28 27 25 24 23 23 23
24 24 23 22 21 21 20 20 20 20 21 21 21 21 22 22 22 22 22 22 22 23 23 24 25 26 27 28 29 31 32 33 33 33 31 30 29 29 31 33 33 32 33 34 35 36 37 37 36 36 35 34 34 35 36 37 38 39 39 39 39 38 38 38 37 36 36 36 37 37 36 35 35 35 35 34 33 33 32 30 28 27 26 26 25 25
23 22 22 21 21 20 21 21 21 21 21 22 22 22 23 23 22 22 23 23 23 24 24 25 26 27 28 29 30 32 33 33 33 32 30 29 28 28 28 30 31 32 31 31 33 34 36 36 37 37 36 36 37 38 39 39 39 39 40 40 39 39 39 38 37 36 36 36 37 37 37 36 35 35 35 35 34 34 34 33 31 30 30 30 30 29
21 21 21 20 20 20 20 21 21 22 22 23 23 24 24 24 24 23 23 23 23 24 25 26 27 28 29 31 32 32 33 32 31 30 29 28 27 26 27 28 30 31 30 31 31 33 34 36 36 37 38 38 39 38 37 39 39 40 39 38 38 39 40 39 38 38 37 37 37 37 37 37 36 36 36 36 35 35 35 34 34 33 32 32 33 33
21 21 20 20 19 19 20 20 21 22 23 24 25 25 24 24 24 24 24 23 24 24 25 27 28 30 31 32 33 33 32 32 30 29 28 28 27 27 27 28 29 30 30 31 32 33 34 35 36 37 38 39 39 39 38 39 40 39 37 37 39 41 42 41 40 39 38 37 37 37 37 37 37 37 36 36 36 35 35 35 35 35 34 33 33 33
20 20 20 19 19 19 20 21 22 23 24 25 25 25 24 24 24 25 25 25 26 26 27 29 30 32 34 34 34 33 32 31 29 29 28 28 28 28 29 29 29 30 30 31 32 33 34 35 36 37 37 38 39 39 39 41 41 41 40 39 40 41 42 41 40 38 37 37 37 37 37 37 37 37 37 37 37 36 36 35 35 35 34 34 34 34
20 20 19 19 19 20 21 22 23 24 24 25 25 24 24 24 24 25 26 27 28 29 30 31 32 34 35 36 36 34 32 30 29 28 29 29 29 29 30 30 30 30 30 31 33 34 35 35 36 37 37 37 38 39 39 41 42 42 41 41 40 40 39 41 41 39 38 38 38 38 37 37 37 37 37 37 37 37 37 37 36 35 36 36 36 36
19 19 19 19 20 21 22 22 23 24 25 25 26 25 25 25 25 26 27 28 30 31 32 32 33 35 36 37 37 36 33 31 29 29 30 30 30 31 31 31 31 31 31 32 33 35 36 36 36 36 36 37 38 39 40 40 41 42 43 42 40 39 39 41 41 40 40 39 39 38 37 37 37 37 38 38 38 38 38 38 38 38 38 37 37 37
19 19 19 20 20 21 22 23 24 25 26 27 27 27 27 26 27 27 28 30 31 32 32 33 33 34 35 35 36 36 34 32 31 31 31 32 32 32 32 32 32 33 32 33 33 34 35 36 37 38 38 38 39 40 41 42 43 43 43 42 41 41 41 41 41 40 40 39 39 38 38 37 37 38 38 39 39 39 39 39 38 39 39 38 38 38
19 19 20 20 21 21 22 23 25 26 27 27 28 28 28 28 29 29 30 31 32 33 33 33 33 33 34 35 35 35 35 35 34 34 34 34 34 34 34 34 34 33 33 34 34 34 35 36 37 38 38 39 39 40 41 41 42 42 42 42 41 41 40 40 39 39 39 39 39 39 38 38 37 38 39 40 40 40 39 38 38 38 38 38 39 39
20 20 21 21 22 22 23 24 25 27 27 28 29 29 29 30 30 31 31 32 32 33 33 33 33 33 34 35 35 35 35 36 37 37 37 37 37 37 36 35 35 34 34 34 34 35 36 37 37 37 38 38 40 41 41 41 40 40 41 41 40 40 39 40 39 38 38 38 38 38 38 38 37 38 39 40 40 40 39 38 38 37 37 38 38 39
20 21 22 22 23 24 25 25 26 27 28 29 29 30 30 31 31 32 32 33 33 32 33 33 33 33 34 34 34 34 34 36 37 39 40 40 40 40 39 37 36 35 35 35 35 36 36 36 36 35 35 36 38 40 40 40 39 39 39 39 39 39 40 40 39 38 37 37 38 38 38 37 37 38 39 40 40 40 40 39 38 38 38 38 38 38
20 21 22 23 24 25 26 26 27 28 28 29 30 31 31 31 32 32 32 33 32 32 32 32 33 33 34 34 34 34 34 36 38 40 41 41 41 41 41 39 38 36 36 36 36 36 36 35 35 33 32 32 33 36 38 38 38 37 37 38 38 38 38 39 39 38 37 37 38 38 38 38 38 38 39 40 41 41 41 41 40 39 39 38 37 37
21 21 22 23 25 26 26 27 27 28 28 29 30 31 32 32 33 33 33 32 32 32 32 32 32 33 34 34 35 35 36 37 38 40 41 41 41 41 41 40 39 39 39 38 37 36 35 35 34 32 30 29 29 31 33 36 36 36 36 37 37 37 38 39 39 38 37 37 38 39 39 39 39 39 39 40 41 42 43 42 41 39 38 37 36 36
21 21 22 23 25 26 26 27 27 27 28 28 30 31 32 33 34 33 33 32 32 32 33 33 33 33 33 34 35 36 36 37 39 40 41 41 41 41 41 41 41 41 40 38 36 35 34 33 32 32 31 28 27 26 29 32 34 35 36 36 36 36 36 37 37 38 38 38 39 40 40 40 40 40 39 39 40 41 41 41 41 39 37 37 36 37
Wind_Direction
302 304 305 305 306 307 308 309 311 312 311 311 310 310 310 310 311 311 312 313 314 314 315 315 316 316 317 317 317 316 315 313 312 310 308 307 306 305 303 301 299 297 296 296 295 295 295 295 294 294 294 293 293 292 292 291 291 291 291 290 289 288 287 286 285 283 282 280 279 278 278 277 277 277 276 276 276 276 276 275 275 275 275 275 275 275
305 306 307 308 308 309 310 312 313 314 314 313 313 314 315 315 316 316 317 317 318 319 319 320 320 320 319 319 318 317 315 313 311 310 309 309 308 306 304 302 299 297 296 296 296 296 296 296 295 294 294 294 293 292 292 291 291 291 291 290 289 288 287 286 285 283 282 281 279 278 278 277 277 276 276 276 276 276 276 276 276 276 276 276 276 276
307 308 309 310 311 312 313 315 316 317 316 316 317 318 319 319 319 319 320 321 321 322 322 322 322 321 320 318 317 316 314 313 311 310 310 310 309 307 305 302 300 298 298 297 297 297 297 296 296 295 295 295 294 293 292 292 292 292 292 291 291 290 288 287 285 283 281 280 279 279 278 277 277 277 277 277 277 277 277 276 276 276 276 276 276 275
308 309 310 312 313 314 315 317 319 319 319 319 320 321 321 321 320 320 321 322 323 324 323 322 321 320 318 317 316 315 314 313 312 311 311 311 310 308 306 304 302 301 301 301 300 300 299 299 299 298 297 296 295 294 293 293 293 293 293 293 292 291 290 288 286 283 281 280 279 278 277 277 277 277 277 277 277 277 277 277 276 276 276 275 275 275
309 310 311 313 314 315 316 318 320 321 321 320 320 321 321 321 320 321 322 323 323 322 321 320 319 318 318 317 316 315 314 313 313 313 312 312 311 309 307 306 306 306 306 306 305 304 304 303 302 301 298 297 296 295 295 295 294 294 293 292 292 291 290 288 286 284 282 280 279 278 278 278 277 277 277 277 277 277 277 276 276 276 276 276 275 275
309 311 312 313 313 314 316 318 320 321 320 319 319 319 320 320 320 320 320 320 319 318 318 318 318 317 317 316 315 315 314 314 313 313 313 313 312 312 312 311 311 311 311 310 309 308 307 305 303 301 299 298 298 297 297 296 295 294 293 291 289 288 288 287 285 284 283 282 280 279 278 278 277 277 277 277 277 277 277 277 277 277 277 277 277 277
310 310 312 313 313 313 315 316 318 318 318 317 318 319 319 319 319 318 317 316 316 316 316 316 316 316 315 315 314 315 315 315 315 315 315 316 316 317 317 316 314 314 313 311 310 308 307 305 303 302 301 301 300 300 298 297 295 293 291 289 288 286 285 284 283 283 282 282 281 280 279 279 278 278 278 278 279 279 279 279 278 278 278 278 278 278
309 310 311 312 313 313 314 314 315 315 315 316 318 319 319 319 317 316 315 314 314 314 314 314 314 314 314 314 315 316 317 317 318 318 319 319 321 321 320 318 316 314 312 310 308 307 306 305 305 305 305 304 303 301 299 296 294 292 290 288 287 285 283 282 282 281 280 279 279 279 279 280 280 280 280 280 280 279 279 279 279 278 278 278 277 277
307 309 310 311 312 313 313 312 312 314 316 317 318 318 317 317 316 314 313 312 312 312 313 313 314 314 314 316 317 319 320 320 321 321 321 321 322 322 320 318 314 311 309 308 308 307 308 309 309 310 309 307 304 301 298 295 293 291 289 287 286 285 283 282 281 280 279 278 278 279 280 281 281 281 281 281 280 279 279 278 278 278 277 277 276 276
306 307 309 310 311 311 311 310 312 315 318 318 316 314 313 313 313 312 311 310 311 312 314 314 315 316 317 318 320 322 323 323 323 322 321 320 319 318 317 314 311 309 308 308 309 310 312 313 314 313 311 308 305 301 298 295 293 292 290 288 287 285 284 282 281 280 280 280 280 281 283 283 283 282 282 281 280 278 278 277 277 277 276 276 276 276
306 306 308 309 310 310 310 310 312 316 318 317 314 311 308 308 309 309 309 310 312 315 317 317 317 317 318 319 321 324 325 324 324 323 321 320 318 315 313 311 309 308 308 309 311 313 316 317 317 315 313 309 305 302 300 297 295 294 293 291 290 288 286 285 284 284 284 285 285 286 285 284 283 282 281 280 278 278 277 277 276 276 275 275 275 275
305 306 307 307 309 310 310 311 313 314 315 313 312 309 307 306 307 308 308 309 312 316 318 318 318 317 318 319 321 323 324 323 322 321 319 316 314 312 310 308 308 309 310 311 313 316 319 320 319 317 314 311 308 305 303 300 299 297 296 295 294 293 292 291 291 290 290 289 289 287 285 284 282 281 281 279 278 277 277 277 276 276 275 275 274 275
304 305 306 307 308 309 309 310 311 311 311 310 308 307 306 306 308 309 309 310 313 316 318 317 316 316 318 320 321 322 322 320 318 316 313 310 307 306 306 306 308 310 312 314 316 319 321 321 320 318 316 313 310 308 305 303 301 301 300 300 300 300 299 298 296 294 292 290 289 286 284 283 282 282 281 280 279 278 278 277 277 276 275 274 274 274
303 305 307 307 307 307 308 308 308 307 306 305 304 304 305 307 309 311 312 311 313 316 318 316 314 315 316 318 320 321 319 316 313 309 306 303 303 304 306 307 308 311 313 314 316 319 322 321 320 319 318 315 313 310 308 306 305 305 306 307 306 304 300 298 295 293 291 289 288 286 284 284 283 283 281 280 279 279 278 278 277 276 275 275 275 274
304 305 306 305 304 304 305 305 304 303 303 302 303 304 306 308 311 313 313 312 313 316 317 315 313 313 313 314 317 318 316 311 306 304 302 301 302 305 307 308 309 311 313 314 315 318 321 322 321 320 320 318 316 314 312 311 310 310 311 310 308 304 300 297 294 292 291 289 288 288 287 286 285 283 282 280 279 278 278 277 277 276 276 276 276 275
304 306 304 303 302 301 302 302 301 301 301 302 304 306 308 310 312 314 314 313 314 316 315 314 312 311 310 312 314 315 312 306 303 302 302 302 304 306 308 308 309 310 313 314 316 319 321 322 322 322 322 320 319 317 316 315 314 313 312 310 307 304 301 298 296 294 292 291 289 288 287 286 284 283 282 280 279 279 278 278 277 277 276 276 276 275
304 303 301 300 299 299 300 300 300 300 302 304 306 308 309 311 313 315 314 314 315 314 312 311 310 309 309 310 311 311 309 306 304 303 303 303 304 308 310 309 309 310 313 315 316 318 320 321 322 323 323 323 322 321 319 318 316 315 313 311 308 306 303 301 298 296 294 292 290 288 287 285 284 283 282 281 281 280 279 278 278 277 277 277 276 275
299 297 296 296 297 298 300 300 301 302 303 305 307 310 312 314 315 315 314 314 312 310 309 308 306 304 305 306 306 307 307 306 305 304 304 303 305 308 311 311 310 311 313 315 316 318 320 321 322 323 323 324 324 323 321 319 317 316 315 313 311 308 305 302 300 297 295 293 291 290 289 287 286 284 283 282 281 280 279 279 278 278 277 277 277 276
293 293 294 296 298 299 300 300 301 302 303 306 310 314 315 316 315 314 313 311 308 306 305 303 302 301 300 300 302 304 306 305 305 304 303 303 305 308 311 312 311 311 313 314 316 319 320 321 322 323 323 324 324 324 322 321 319 317 316 314 312 310 307 304 302 300 298 296 293 292 290 289 287 285 284 283 282 281 280 279 279 279 278 278 277 277
292 293 295 297 299 300 299 299 300 302 304 310 314 316 315 314 313 311 310 308 306 304 302 300 299 298 298 298 300 303 306 306 306 304 303 302 304 307 311 312 311 311 311 314 317 319 320 321 321 322 322 323 323 323 322 322 320 318 316 314 312 310 308 306 304 302 300 298 296 294 292 291 289 287 285 284 283 282 281 280 280 280 279 279 278 277
294 295 297 299 300 299 298 298 300 303 309 315 317 315 313 312 311 309 307 306 305 303 301 298 297 297 297 297 299 303 307 308 307 305 304 303 303 306 310 312 312 311 310 313 317 319 320 319 319 319 320 321 321 321 321 321 320 318 316 314 312 310 309 307 306 304 302 300 298 296 294 292 291 289 288 286 285 284 283 282 281 280 279 278 278 277
296 297 299 300 299 298 298 299 302 307 314 317 315 313 313 313 311 309 308 306 303 300 298 296 295 296 297 298 300 304 309 309 308 306 305 303 303 306 311 312 311 310 309 312 316 318 318 316 316 316 317 318 318 318 319 319 318 317 315 313 311 310 309 309 308 306 304 302 300 298 296 294 293 291 290 288 287 285 283 282 280 279 278 278 277 277
297 298 298 298 297 297 299 302 306 311 315 315 314 313 313 313 312 310 307 302 299 297 296 296 297 298 299 300 303 307 311 312 311 308 304 300 300 304 310 312 311 308 307 311 314 315 315 313 312 313 314 315 316 316 317 317 317 316 314 313 311 310 310 310 309 308 306 304 301 299 297 295 293 291 289 287 286 284 283 281 280 279 279 278 277 277
295 295 296 296 297 299 301 304 307 309 310 310 309 309 308 305 301 298 296 295 296 297 298 300 301 301 301 303 305 308 312 314 314 310 304 299 299 304 309 311 309 307 307 310 312 312 311 310 309 310 311 312 313 315 316 317 316 314 314 313 311 311 311 311 311 309 307 304 301 299 297 294 292 290 288 287 285 284 283 282 282 281 280 279 278 277
293 293 294 296 297 298 299 299 299 299 297 296 295 295 294 293 293 293 294 296 298 300 301 302 301 300 301 303 305 309 314 316 316 311 306 302 301 304 308 309 307 306 306 309 311 310 308 307 307 307 308 310 312 315 316 316 315 314 313 312 312 312 312 312 311 309 307 304 301 299 297 294 292 291 289 288 287 286 285 284 283 283 281 280 279 278
292 292 293 294 294 293 291 289 289 288 288 289 291 293 295 297 298 299 300 300 300 300 299 299 298 299 302 305 307 310 315 318 318 314 309 304 302 303 306 309 309 307 307 308 309 308 306 305 305 306 307 310 313 316 316 316 315 315 314 312 311 311 311 311 310 309 307 305 303 300 298 297 295 293 292 291 289 288 287 286 284 283 281 280 279 278
291 292 293 293 292 291 290 290 291 293 295 298 300 301 302 301 300 299 298 298 298 297 297 297 299 301 304 306 307 310 315 318 319 317 313 307 303 302 306 310 310 309 307 307 307 307 306 304 304 305 307 310 313 315 315 314 314 313 311 310 309 310 310 311 311 311 310 309 306 304 301 300 298 296 295 293 291 289 288 286 284 283 281 280 279 278
294 295 296 296 296 296 296 298 299 301 302 303 303 303 301 299 297 295 293 295 295 295 296 297 299 301 303 303 305 308 312 316 319 319 316 310 303 302 306 309 309 308 307 307 308 308 307 304 304 305 308 310 312 312 311 311 310 310 310 310 310 311 312 313 314 314 312 311 309 306 303 301 299 298 296 294 292 290 288 286 285 284 282 281 279 278
302 303 303 302 302 302 302 302 303 303 304 304 303 302 300 297 293 291 291 294 296 297 298 299 300 301 301 302 304 307 309 313 317 319 315 309 303 301 306 307 308 307 307 308 309 309 308 306 305 305 307 308 308 307 307 308 309 310 311 312 314 315 316 316 316 315 313 311 309 306 304 303 301 300 298 296 295 293 290 288 287 286 284 282 281 279
308 307 306 306 305 304 304 303 304 304 304 304 303 301 299 296 293 292 295 298 300 301 301 301 301 301 301 303 304 305 306 310 315 316 312 306 303 303 306 307 307 308 309 309 309 309 308 307 306 305 305 305 304 305 306 307 309 311 312 314 315 316 316 316 315 314 312 309 308 306 306 305 304 303 302 301 299 297 294 292 290 288 286 284 282 281
306 306 306 306 306 305 305 305 305 305 305 304 303 301 298 297 297 298 301 304 305 304 302 301 300 300 299 300 299 299 300 307 312 314 310 306 303 304 306 307 307 308 309 307 305 304 305 306 307 307 306 304 304 304 306 307 309 310 311 312 313 314 314 314 313 312 310 309 308 308 307 307 307 306 305 304 303 301 299 296 293 290 287 284 283 281
304 305 305 306 306 307 307 307 307 307 306 305 304 303 303 304 306 307 308 309 307 305 301 299 299 298 298 296 293 292 295 304 311 314 311 307 305 305 306 306 306 306 307 304 300 298 298 300 304 306 307 305 304 304 305 306 307 308 308 309 309 310 312 312 311 310 309 309 309 309 309 308 308 308 308 307 306 305 303 301 297 292 288 285 283 282
304 305 306 307 308 309 309 309 309 309 309 310 311 312 313 314 314 313 311 310 307 303 300 298 298 299 299 297 295 294 298 304 311 314 312 307 304 304 305 305 304 304 305 303 300 296 294 295 299 303 305 305 304 304 304 304 304 305 306 306 307 309 310 311 311 309 309 309 310 310 310 310 310 310 311 311 311 310 309 307 302 296 290 286 285 284
306 307 308 310 311 311 312 312 313 315 317 318 320 320 319 318 316 314 312 310 308 305 303 301 300 299 300 299 298 299 303 308 313 314 312 307 303 302 303 303 303 303 303 302 301 299 296 295 296 299 301 303 303 303 302 302 304 305 306 306 306 307 309 310 309 309 309 309 310 310 311 312 313 313 314 314 314 314 313 311 307 301 294 289 287 286
309 311 312 313 313 314 315 317 320 323 324 325 324 323 321 319 317 315 314 313 311 310 308 306 304 302 300 299 298 300 305 311 315 316 313 309 306 304 303 301 301 301 301 300 300 299 298 296 296 298 299 301 302 302 302 302 304 305 306 305 305 305 306 307 307 307 308 308 309 310 312 313 314 315 315 316 316 316 315 312 307 302 295 290 285 283
312 313 314 315 316 318 321 324 327 328 327 326 324 322 321 320 318 318 317 316 315 314 313 311 309 307 305 302 300 302 307 313 317 318 316 313 310 306 302 301 301 301 300 299 298 297 297 296 297 298 298 298 299 301 303 304 305 305 305 305 305 305 306 307 307 307 307 307 308 310 312 313 313 314 315 316 316 314 312 308 304 300 295 291 286 281
313 314 315 317 321 324 328 329 330 329 327 325 324 323 323 322 321 321 320 319 318 317 315 314 313 312 311 309 307 307 311 314 317 318 318 317 314 309 304 303 303 303 300 298 297 297 297 296 297 297 297 295 296 298 301 304 305 305 304 305 305 305 307 308 309 308 306 306 307 308 310 310 310 311 312 313 313 312 309 307 306 304 302 299 295 290
314 315 318 322 326 329 330 330 329 328 327 327 327 327 327 326 325 324 322 320 319 318 317 316 315 315 314 314 313 313 314 315 317 319 320 319 316 312 307 304 304 304 302 300 299 298 297 295 294 295 295 295 295 296 299 301 302 303 304 306 306 305 306 308 308 307 305 304 305 306 307 307 307 308 309 310 310 310 309 309 310 310 309 307 304 300
317 320 324 327 329 329 329 328 328 329 329 330 331 331 331 329 327 325 323 321 320 319 318 318 317 316 316 315 315 316 317 318 319 321 321 321 318 314 309 306 305 306 306 305 302 299 296 293 292 291 292 294 295 297 299 300 300 301 303 305 305 305 306 307 307 305 304 303 303 304 305 307 307 307 307 308 308 308 308 310 311 311 311 309 307 304
323 326 328 329 328 327 327 327 329 331 333 334 335 334 333 331 328 326 324 322 321 321 321 321 320 319 319 318 319 319 320 321 323 324 324 323 322 319 314 310 308 308 309 308 305 301 296 293 292 291 292 292 293 295 297 298 299 300 300 300 300 302 306 307 306 305 304 304 303 304 305 307 307 307 306 306 306 306 306 307 308 308 308 306 304 302
327 327 327 327 326 326 327 330 333 335 336 336 336 335 334 332 330 328 327 326 326 326 326 325 325 324 323 322 322 323 323 324 325 326 326 326 325 323 319 315 313 312 311 308 306 303 299 296 294 294 294 294 294 295 295 296 298 298 297 296 296 299 304 306 307 306 306 306 305 305 305 305 305 305 305 305 305 305 305 305 305 305 305 303 301 299
324 323 323 325 326 328 331 335 337 337 336 335 335 335 335 334 333 331 331 330 331 331 331 331 329 327 326 325 325 325 326 327 327 328 328 328 327 325 322 319 317 314 311 308 305 303 301 299 297 295 294 295 295 294 294 296 299 299 297 295 296 299 303 305 307 308 305 304 304 304 303 303 303 303 304 304 305 305 306 305 304 302 301 300 300 299
319 320 322 325 329 333 336 337 337 337 336 335 335 336 336 336 335 334 333 332 332 333 333 333 331 328 327 326 326 327 328 328 328 328 327 327 326 325 323 321 319 316 312 307 304 303 303 302 298 296 296 297 295 293 292 294 296 298 297 297 297 296 296 300 305 308 306 304 304 303 303 303 303 304 305 305 305 305 305 304 303 302 301 300 299 299
317 320 325 329 333 335 336 336 337 337 336 336 336 337 338 338 337 336 334 332 332 332 333 332 331 329 327 325 326 327 327 327 328 328 327 327 327 325 324 322 320 318 314 308 304 302 303 302 299 298 299 298 295 293 292 292 293 295 297 298 297 294 292 296 301 304 304 304 304 304 304 305 305 306 305 304 304 303 303 303 303 303 303 303 301 299
320 325 329 333 335 335 334 335 336 336 336 336 337 338 339 339 338 337 335 332 332 332 331 331 330 327 323 322 324 325 326 327 327 328 329 329 329 327 325 322 320 318 315 311 307 304 302 300 300 302 303 300 296 293 291 291 293 294 297 298 298 296 295 298 299 300 299 301 303 304 306 307 307 305 303 302 302 302 302 301 301 301 301 301 299 298
327 331 333 333 333 333 333 334 335 335 336 337 337 338 340 340 339 338 335 333 332 331 331 331 329 325 321 320 321 323 325 326 328 329 330 331 330 328 326 324 322 319 316 313 310 306 303 301 301 301 301 299 296 293 292 292 291 292 295 297 298 297 297 298 298 298 299 299 301 304 307 309 306 302 299 299 300 300 300 299 298 297 297 297 296 295
333 332 332 332 332 332 333 334 335 336 337 337 338 338 339 339 339 337 335 334 332 331 331 330 328 324 321 321 321 321 322 323 326 328 330 331 331 330 328 326 324 320 316 313 310 307 305 303 302 300 297 294 292 292 294 295 293 292 294 296 297 296 295 297 298 300 300 299 300 303 307 306 303 299 297 297 297 297 297 296 295 294 293 292 292 291
332 331 331 331 331 332 333 334 335 337 338 338 338 338 338 339 337 335 334 333 332 331 331 330 328 325 322 322 322 322 320 320 322 325 327 329 330 330 328 326 323 320 317 314 311 308 306 304 302 299 295 291 289 290 293 296 297 295 295 296 295 294 294 296 299 300 300 300 300 302 303 301 298 296 296 296 295 294 293 293 293 292 291 291 291 291
332 331 331 331 331 332 333 334 336 338 338 338 337 337 337 337 336 334 333 333 332 332 331 329 327 325 323 323 324 324 322 321 322 323 325 326 327 327 326 325 322 319 317 315 313 311 309 307 304 301 297 292 289 289 292 295 297 296 295 294 293 292 292 294 297 299 299 299 300 302 301 299 297 296 295 293 291 292 292 293 293 293 292 292 292 292
333 332 331 331 331 331 333 334 336 337 338 337 337 336 336 335 335 335 334 333 333 332 331 329 327 325 323 323 324 325 324 322 322 323 324 325 325 324 323 323 322 320 318 316 314 313 311 308 306 304 301 296 291 289 289 292 294 294 292 291 291 291 290 292 294 296 297 298 299 300 300 298 298 296 294 291 291 292 293 293 293 293 293 294 294 294
334 333 332 331 331 332 333 335 336 337 337 336 336 335 335 335 335 335 335 335 335 334 333 332 329 325 322 322 323 324 323 322 320 320 322 324 323 322 321 321 320 319 316 313 312 311 310 307 305 304 304 302 297 291 288 289 291 291 290 290 290 290 289 290 292 295 296 297 297 298 297 297 296 295 293 291 291 291 292 292 292 293 293 294 294 294